Home > Weather > Verden (Aller) > Past weeks

Flag for Germany Past Weather in Verden (Aller), Lower Saxony, Germany — Yesterday and Last 2 Weeks

Now
70 °F

Passing clouds.


Feels Like: 70 °F
Forecast: 57 / 66 °F
Wind: 6 mph from Southwest

Location: Bremen Airport

Current Time: Jun 28, 2016 at 3:23:54 PM

Latest Report: Jun 28, 2016 at 2:50 PM


Visibility: N/A

Pressure: 30.04 "Hg

Humidity: 46%

Dew Point: 48 °F

Location of Verden (Aller)Location

Past Weather in Verden (Aller) — Graph

°F

Verden (Aller) Temperature Yesterday

Maximum temperature yesterday: 68 °F (at 12:50 PM)
Minimum temperature yesterday: 52 °F (at 4:20 AM)
Average temperature yesterday: 60 °F

High & Low Weather Summary for the Past Weeks

 TemperatureHumidityPressure
High88 °F (Jun 23, 2:50 PM)100% (Jun 13, 11:20 PM)30.21 "Hg (Jun 13, 11:20 PM)
Low46 °F (Jun 20, 1:50 AM)46% (Jun 28, 12:50 PM)29.45 "Hg (Jun 14, 12:50 PM)
Average63 °F82%29.90 "Hg
* Reported Jun 13 2:20 PM — Jun 28 2:20 PM, Verden (Aller), Weather by CustomWeather, © 2016

Note: Actual official high and low records may vary slightly from our data, if they occured in-between our weather recording intervals... More about our weather records

Advertising

Verden (Aller) Weather History for the Previous 24 Hours

Scroll right to see more
 ConditionsComfort  
Time TempWeatherWind HumidityBarometerVisibility
2:20 PM
Tue, Jun 28
66 °FPassing clouds.6 mph52%30.04 "HgN/A
1:50 PM68 °FPassing clouds.7 mph46%30.04 "HgN/A
1:20 PM66 °FPassing clouds.6 mph49%30.07 "HgN/A
12:50 PM66 °FPassing clouds.6 mph46%30.07 "HgN/A
12:20 PM64 °FScattered clouds.6 mph52%30.07 "HgN/A
11:50 AM64 °FScattered clouds.7 mph52%30.07 "HgN/A
11:20 AM64 °FScattered clouds.6 mph52%30.07 "HgN/A
10:50 AM63 °FScattered clouds.7 mph59%30.09 "HgN/A
10:20 AM63 °FScattered clouds.9 mph59%30.09 "HgN/A
9:50 AM61 °FScattered clouds.8 mph68%30.07 "HgN/A
9:20 AM61 °FPassing clouds.7 mph68%30.07 "HgN/A
8:50 AM59 °FPassing clouds.6 mph77%30.07 "HgN/A
8:20 AM57 °FPassing clouds.6 mph88%30.07 "HgN/A
7:50 AM55 °FSunny.5 mph88%30.07 "Hg10 mi
7:20 AM54 °FSunny.3 mph94%30.07 "Hg10 mi
6:50 AM52 °FSunny.3 mph100%30.07 "Hg10 mi
6:20 AM52 °FSunny.2 mph100%30.07 "Hg10 mi
5:50 AM50 °FClear.1 mph100%30.07 "Hg10 mi
5:20 AM50 °FClear.3 mph100%30.07 "Hg10 mi
4:50 AM50 °FClear.5 mph100%30.07 "Hg10 mi
4:20 AM50 °FCool.5 mph100%30.07 "HgN/A
3:50 AM52 °FClear.5 mph94%30.04 "Hg10 mi
3:20 AM52 °FClear.6 mph94%30.07 "Hg10 mi
2:50 AM54 °FClear.6 mph94%30.07 "Hg10 mi
2:20 AM55 °FClear.7 mph94%30.07 "Hg10 mi
1:50 AM55 °FPassing clouds.7 mph100%30.07 "HgN/A
1:20 AM57 °FPassing clouds.9 mph94%30.04 "HgN/A
12:50 AM57 °FPartly cloudy.8 mph94%30.04 "HgN/A
12:20 AM57 °FPassing clouds.6 mph94%30.04 "HgN/A
11:50 PM
Mon, Jun 27
59 °FPassing clouds.7 mph94%30.04 "HgN/A
11:20 PM59 °FPassing clouds.8 mph88%30.04 "HgN/A
10:50 PM59 °FBroken clouds.5 mph94%30.04 "HgN/A
10:20 PM61 °FScattered showers. Partly sunny.5 mph88%30.01 "HgN/A
9:50 PM61 °FSprinkles. Partly sunny.7 mph88%30.01 "HgN/A
9:20 PM61 °FScattered showers. Broken clouds.5 mph100%30.01 "HgN/A
8:50 PM61 °FPartly sunny.5 mph100%30.01 "HgN/A
8:20 PM61 °FScattered showers. Scattered clouds.7 mph100%30.01 "HgN/A
7:50 PM61 °FLight rain. Broken clouds.7 mph94%30.01 "HgN/A
7:20 PM63 °FLight rain. Broken clouds.9 mph94%30.01 "HgN/A
6:50 PM61 °FDrizzle. Broken clouds.10 mph94%30.01 "Hg4 mi
6:20 PM61 °FDrizzle. Partly sunny.7 mph94%30.01 "Hg4 mi
5:50 PM61 °FDrizzle. Overcast.13 mph94%30.01 "Hg2 mi
5:20 PM64 °FPartly sunny.7 mph83%30.01 "HgN/A
4:50 PM64 °FPartly sunny.12 mph78%30.01 "HgN/A
4:20 PM66 °FPartly sunny.14 mph73%29.98 "HgN/A
3:50 PM66 °FBroken clouds.14 mph68%29.98 "HgN/A
3:20 PM66 °FBroken clouds.14 mph64%29.98 "HgN/A
Weather by CustomWeather, © 2016

See weather overviewHow to use our weather pages